{"data":{"norad_id":52598,"epoch":"2026-09-20T04:10:16.752000Z","epoch_age_seconds":91484,"freshness":"FRESH","line1":"1 52598U 22052A   26263.17380500  .00000345  00000+0  20786-4 0  9991","line2":"2 52598  53.1589 117.7518 0001248  86.6166 273.4979 15.35397018241123","mean_motion":15.35397018,"eccentricity":0.0001248,"inclination_deg":53.1589,"raan_deg":117.7518,"arg_perigee_deg":86.6166,"mean_anomaly_deg":273.4979,"bstar":2.0786e-5,"rev_number":24112,"period_min":93.786817553921,"perigee_km":458.88812903273,"apogee_km":460.5948635054,"semimajor_km":6837.8784962691,"source":"CELESTRAK","updated_at":"2026-09-20T09:00:40.067339Z"}}